Location: Apeadero de Los Molinos-Guadarrama
(40.7091°N, 4.0689°W)
Time: 13:34:37
(UTC+00:00)

Cosmos 1271 Rocket - Pass Details

Date: 14 May 2021
Orbit: 497 x 545 km, 81.2° (Epoch: 18 June)

Event Time Altitude Azimuth Distance (km) Brightness Sun altitude
Exits shadow 21:12:33 34° 163° (SSE) 904 3.4 -17.2°
Maximum altitude 21:14:04 61° 97° (E) 621 2.8 -17.4°
Drops below altitude 10° 21:18:02 10° 17° (NNE) 1,822 5.8 -18.0°
Sets 21:20:13 0° 13° (NNE) 2,717 6.8 -18.2°
